Regional Weather Roundup
Issued by NWS

Home | Current Version | Previous Version | Text Only | Print | Product List | Glossary Off
Versions: 1 2 3 4 5 6 7 8 9 10 11 12 13 14 15 16 17 18 19 20 21 22 23 24 25 26

000
ASUS45 KBOU 271107
RWRCO

WEATHER ROUNDUP FOR COLORADO
NATIONAL WEATHER SERVICE DENVER/BOULDER CO
500 AM MDT THU JUL 27 2017

NOTE: "FAIR" INDICATES FEW OR NO CLOUDS BELOW 12000 FEET WITH NO
SIGNIFICANT WEATHER AND/OR OBSTRUCTIONS TO VISIBILITY.

COZ001>005-013-030-031-271200-
...NORTHWEST COLORADO...

CITY           SKY/WX    TMP DP  RH WIND       PRES   REMARKS
CRAIG          FAIR      56  53  90 CALM      30.29S
HAYDEN         FAIR      57  50  77 E10       30.31S
MEEKER         FAIR      56  54  93 NE5       30.29F
RABBIT EARS PA FAIR      52  46  82 SW10      30.58F
STEAMBOAT SPGS FAIR      53  52  97 CALM      30.34S
WALDEN         FAIR      46  45  93 SE7       30.43S
$$

COZ006>008-011-271200-
...WEST CENTRAL VALLEYS...

CITY           SKY/WX    TMP DP  RH WIND       PRES   REMARKS
GRAND JUNCTION FAIR      68  59  73 VRB5      30.16S
MONTROSE       FAIR      64  56  75 SE7       30.24F
EAGLE          FAIR      57  52  83 E5        30.35F
RIFLE          FAIR      63  58  83 CALM      30.23F
DELTA          FAIR      65  56  73 CALM      30.22R
NUCLA          FAIR      61  54  77 SE7       30.28S
$$

COZ017>023-064>068-271200-
...SOUTHWEST COLORADO...

CITY           SKY/WX    TMP DP  RH WIND       PRES   REMARKS
DURANGO        FAIR      58  53  84 CALM      30.28R
CORTEZ         FAIR      57  54  89 NE7       30.23R
PAGOSA SPRINGS FAIR      56  50  80 CALM      30.36S
TELLURIDE      FAIR      54  51  90 CALM      30.49F
WOLF CREEK PAS FAIR      48  41  76 N5        30.72F
$$

COZ009-010-012-014-032>034-037-058>063-271200-
...CENTRAL COLORADO...

CITY           SKY/WX    TMP DP  RH WIND       PRES   REMARKS
ASPEN          FAIR      55  51  86 SW6       30.39S
BUENA VISTA    CLOUDY    58  54  85 CALM      30.44S
COPPER MTN     FAIR      52  46  82 NW3       30.71S
BERTHOUD PASS  FAIR      43  32  65 W20       30.72F
COTTONWOOD PAS CLOUDY    55  50  82 W3        30.56S
GUNNISON       FAIR      53  49  86 CALM      30.41S
KREMMLING      CLOUDY    59  55  88 CALM      30.41S FOG
LEADVILLE      CLOUDY    51  49  92 CALM      30.55R
MONARCH PASS   MOCLDY    46  45  93 NE3       30.79S
SALIDA         CLOUDY    60  56  87 S3        30.49S
SUNLIGHT       FAIR      50  45  81 E5        30.63F
WILKERSON PASS FAIR      46  45  93 NE6       30.68F
$$

COZ069>075-271200-
...SAN LUIS VALLEY/SANGRE DE CRISTO MOUNTAINS...

CITY           SKY/WX    TMP DP  RH WIND       PRES   REMARKS
ALAMOSA        FAIR      56  55  97 CALM      30.38R
DEL NORTE      FAIR      55  48  76 W9        30.41S
LA VETA PASS   NOT AVBL
SAGUACHE         N/A    N/A N/A N/A MISG        N/A
$$

COZ035-036-038>040-271200-
...NORTHERN COLORADO FRONT RANGE...

CITY           SKY/WX    TMP DP  RH WIND       PRES   REMARKS
DENVER INTL AP MOCLDY    60  58  92 E8        30.22F
DMNS CITY PARK   N/A     62  60  93 SE13      30.21F
AURORA         MOCLDY    61  61 100 S3        30.25S
FRONT RANGE AP FAIR      63  61  94 E3        30.25F
ERIE MUNI ARPT FAIR      60  59  96 CALM      30.21S
BOULDER MUN AP FAIR      61  61 100 CALM      30.21F
CENTENNIAL     FAIR      63  58  83 E5        30.26R
BROOMFIELD     FAIR      63  57  82 CALM      30.24S
FORT COLLINS   FAIR      62  60  93 N3        30.21F
LONGMONT       FAIR      63  60  90 NW6       30.21F
$$

COZ041-046-047-076>085-087-088-271200-
...PIKES PEAK/PALMER DIVIDE AND SOUTHERN FOOTHILLS...

CITY           SKY/WX    TMP DP  RH WIND       PRES   REMARKS
COLO. SPRINGS  FAIR      62  60  93 SW10      30.29F
A. F. ACADEMY  FAIR      59  59 100 CALM      30.30F
SCHRIEVER AFB  FAIR      59  57  94 S10       30.30F
CHEYENNE MTN   FAIR      59  54  83 CALM      30.28F
ELLICOTT         N/A    N/A N/A N/A W6        30.28S
FALCON           N/A     58  57  96 W8G17     30.33F
FORT CARSON    FAIR      61  59  95 E5        30.27R
LIMON          FAIR      62  61  96 CALM      30.27R
MONUMENT HILL  FAIR      55  54  94 SW7       30.35S
CANON CITY     CLEAR     63  63 100 W8        30.27F
WALSENBURG     NOT AVBL
TRINIDAD       CLOUDY    63  58  83 NW6       30.30R
$$

COZ042>045-048>051-090-091-271200-
...NORTHEAST COLORADO...

CITY           SKY/WX    TMP DP  RH WIND       PRES   REMARKS
GREELEY ARPT   FAIR      61  60  97 E6        30.20F FOG
AKRON          MOCLDY    64  62  93 SE7       30.23R
BURLINGTON     CLOUDY    68  67  96 NE3       30.21R
WRAY           NOT AVBL
YUMA           CLOUDY    64  59  82 CALM      30.20S
STERLING       MOCLDY    64  63  94 CALM      30.19S
HOLYOKE        CLOUDY    68  63  83 CALM      30.19S
FORT MORGAN    FAIR      63  61  93 NE3       30.22R
$$

COZ086-089-092>099-271200-
...SOUTHEAST COLORADO...

CITY           SKY/WX    TMP DP  RH WIND       PRES   REMARKS
PUEBLO         FAIR      64  61  90 W3        30.22F
LA JUNTA       LGT RAIN  67  65  93 NW3       30.19F
LAMAR          FAIR      71  68  90 NE3       30.14S
SPRINGFIELD      N/A     65  64  97 N7        30.20R
$$




USA.gov is the U.S. government's official web portal to all federal, state and local government web resources and services.